Lumberton, NC

10:36 PM EDT on May 29, 2017 (GMT -0400)
Lumberton Municipal

Weather History for KLBT - May, 2012

Change the Weather History Date:

Tuesday, May 22, 2012

  Actual Average Record
Temperature  
Mean Temperature 76 °F 72 °F  
Max Temperature 89 °F 84 °F 95 °F (2004)
Min Temperature 63 °F 60 °F 46 °F (2002)
Degree Days  
Heating Degree Days 0 0  
Month to date heating degree days 2 30  
Since 1 July heating degree days 2138 2759  
Cooling Degree Days 11 7  
Month to date cooling degree days 142 107  
Year to date cooling degree days 284 175  
Growing Degree Days 26 (Base 50)    
Moisture  
Dew Point 65 °F    
Average Humidity 73    
Maximum Humidity 100    
Minimum Humidity 45    
Precipitation  
Precipitation 0.00 in 0.11 in 1.18 in (2017)
Month to date precipitation 3.90 1.95  
Year to date precipitation 15.35 13.97  
Sea Level Pressure  
Sea Level Pressure 29.84 in    
Wind  
Wind Speed 4 mph (South)    
Max Wind Speed 23 mph    
Max Gust Speed 33 mph    
Visibility 9 miles    
Events Thunderstorm    
T = Trace of Precipitation, MM = Missing Value Source: NWS Daily Summary

Daily Weather History Graph

Daily Weather History Graph

Search for Another Location

Airport or City:

Trip Planner

Search our weather history database for the weather conditions in past years. The results will help you decide how hot, cold, wet, or windy it might be!

Date:

Astronomy

May. 22, 2012 Rise Set
Actual Time 6:08 AM EDT 8:17 PM EDT
Civil Twilight 5:40 AM EDT 8:46 PM EDT
Nautical Twilight 5:05 AM EDT 9:20 PM EDT
Astronomical Twilight 4:28 AM EDT 9:58 PM EDT
Moon 7:18 AM EDT (5/22) 9:53 PM EDT (5/22)
Length of Visible Light 15h 05m
Length of Day
14h 09m
Waxing Crescent, 3% of the Moon is Illuminated
May 22
Waxing Crescent
May 28
First Quarter
Jun 4
Full
Jun 11
Last Quarter
Jun 19
New

Hourly Weather History & Observations

Time (EDT) Temp. Heat Index Dew Point Humidity Pressure Visibility Wind Dir Wind Speed Gust Speed Precip Events Conditions
12:54 AM 69.1 °F - 66.0 °F 90% 29.89 in 10.0 mi Calm Calm - N/A   Mostly Cloudy
1:54 AM 66.9 °F - 64.9 °F 93% 29.88 in 10.0 mi Calm Calm - N/A   Clear
2:54 AM 66.9 °F - 64.9 °F 93% 29.88 in 8.0 mi Calm Calm - N/A   Mostly Cloudy
4:54 AM 64.0 °F - 63.0 °F 96% 29.86 in 5.0 mi Calm Calm - N/A   Clear
5:54 AM 64.0 °F - 62.1 °F 93% 29.86 in 4.0 mi Calm Calm - N/A   Clear
6:54 AM 64.9 °F - 64.0 °F 97% 29.88 in 3.0 mi Calm Calm - N/A   Mostly Cloudy
7:54 AM 69.1 °F - 66.0 °F 90% 29.88 in 7.0 mi Variable 3.5 mph - N/A   Mostly Cloudy
8:54 AM 73.0 °F - 66.9 °F 81% 29.88 in 9.0 mi Calm Calm - N/A   Clear
9:54 AM 80.1 °F 82.7 °F 68.0 °F 67% 29.88 in 10.0 mi SW 5.8 mph - N/A   Clear
10:54 AM 81.0 °F 83.0 °F 66.0 °F 60% 29.88 in 10.0 mi SW 5.8 mph - N/A   Clear
11:54 AM 84.9 °F 86.1 °F 64.0 °F 49% 29.88 in 10.0 mi Variable 5.8 mph - N/A   Clear
12:54 PM 86.0 °F 86.3 °F 62.1 °F 44% 29.86 in 10.0 mi SW 6.9 mph - N/A   Scattered Clouds
1:20 PM 82.4 °F 83.9 °F 64.4 °F 54% 29.85 in 10.0 mi SW 6.9 mph - N/A Thunderstorm Mostly Cloudy
1:54 PM 87.1 °F 87.5 °F 62.1 °F 43% 29.82 in 10.0 mi Variable 5.8 mph - N/A Thunderstorm Partly Cloudy
2:10 PM 87.8 °F 87.6 °F 60.8 °F 40% 29.81 in 10.0 mi Variable 4.6 mph 16.1 mph N/A   Clear
2:54 PM 84.9 °F 85.9 °F 63.0 °F 48% 29.81 in 10.0 mi SW 9.2 mph - N/A   Partly Cloudy
3:13 PM 84.2 °F 85.6 °F 64.4 °F 51% 29.81 in 10.0 mi SSW 10.4 mph - N/A Thunderstorm Partly Cloudy
3:24 PM 82.4 °F 83.9 °F 64.4 °F 54% 29.81 in 10.0 mi SSW 9.2 mph 20.7 mph N/A Thunderstorm Clear
3:54 PM 79.0 °F - 63.0 °F 58% 29.82 in 10.0 mi SSE 16.1 mph 33.4 mph N/A Thunderstorm Scattered Clouds
4:12 PM 78.8 °F - 62.6 °F 57% 29.81 in 10.0 mi SSE 11.5 mph 24.2 mph N/A   Partly Cloudy
4:49 PM 78.8 °F - 62.6 °F 57% 29.80 in 10.0 mi SSE 9.2 mph - N/A Thunderstorm Clear
4:54 PM 79.0 °F - 64.0 °F 60% 29.79 in 10.0 mi SSE 8.1 mph - N/A Thunderstorm Clear
5:22 PM 78.8 °F - 64.4 °F 61% 29.81 in 10.0 mi Variable 3.5 mph - N/A Thunderstorm Clear
5:37 PM 78.8 °F - 66.2 °F 65% 29.80 in 10.0 mi Calm Calm - N/A   Clear
5:54 PM 79.0 °F - 66.0 °F 64% 29.81 in 10.0 mi SSE 4.6 mph - N/A   Partly Cloudy
6:54 PM 77.0 °F - 66.0 °F 69% 29.80 in 10.0 mi SE 6.9 mph - N/A   Clear
7:54 PM 73.9 °F - 68.0 °F 82% 29.81 in 7.0 mi SSE 3.5 mph - N/A   Mostly Cloudy
8:54 PM 72.0 °F - 68.0 °F 87% 29.83 in 9.0 mi ESE 4.6 mph - N/A   Clear
9:54 PM 71.1 °F - 68.0 °F 90% 29.83 in 7.0 mi SE 4.6 mph - N/A   Partly Cloudy
10:54 PM 70.0 °F - 68.0 °F 93% 29.83 in 5.0 mi Calm Calm - N/A   Clear
11:54 PM 69.1 °F - 68.0 °F 96% 29.85 in 3.0 mi Calm Calm - N/A   Clear